"Pseudo-MPEC" for A10clUA

Created 2019 Mar 17 11:18:08 UT using Find_Orb

Click here for an explanation of pseudo-MPECs

 
 Astrometry: 
     A10clUA  C2019 03 14Qw%G6T_,p%B/;RPe#j`:5Fo(r4W:?.?fLAstrometry/te;kj8TDT08
     A10clUA  C2019 03 144tHJ@=,l+c,Kq%kw5fb*1,BeQ]4('n6B^@cVLUajbf;AX9VxUa/bT08
     A10clUA  C2019 03 140erRI8oYKu.gaJbs=?qrZZZ=b'8$VnhAfAEXjXv;S+\o/EhL:DRNT08
     A10clUA  C2019 03 14q/^luYk-IJ*?#iULxToJL/H$7[N(v5RmEj9tI+(LU2k2U!_SU.W(T08
     A10clUA  C2019 03 14kkJw8IgQCj6%kkbXFcqyr%0Tvj;^_OOPyLh9sF]0%Uqb3=%^qQc'T08
     A10clUA  C2019 03 14vM`PT(RGVR+fX+AOG/Fm=W1EcJpdH';PAk*$wQZ*6uukv*kR/4cTT08
     A10clUA  C2019 03 14W@[H$_y/s)FsEAnjS\@+k.Hy`i#Y=YSx[W]4g03)=.Q.L*DGiiUkT08
     A10clUA  C2019 03 14bPH`e%wF-Y65hBCnLA;p0KaR@vx8k:B9!.rR.?`RP;tr9iyZ^IEcT08
     A10clUA  C2019 03 14RjdEEL=wZ67:ih0c:IRm]kp(T[Z^B/ZNyEsDqjv,'3FpU0YJYfqqT08
     A10clUA  C2019 03 14pEC*svOlu!\qa=*a3:rGd+3[jI0ULC%q@0jq96l:McUjG=X;5%%@T08
     A10clUA  C2019 03 14kk*qb%[-vtChiJ+Do,;MHPR'KDBHZa/KR9vnr1!n`y6OIuM(ik*?511
     A10clUA  C2019 03 14UIU[UI1IACK6)J2s_l^(]B5-FVomfrHGMK2wm/H]8Lc$E?dkWlOy511
     A10clUA  C2019 03 14b:)d;VjNS]redacted;]UtP'7T'Wrr4?GhgeO\:_xTh=pE-DRD[.511
     A10clUA  C2019 03 14@85/W6wEVL[peZJ.Q@S8_\mTe]=+y^Dhm!%j5p\+5pUCGPP_H6u)511
     A10clUA  C2019 03 14*qbwMAAMVkca'3qJZ!!sI7HtQH;Ru5\Gw4Ns/UO!?7(RbRgc-:fx511
     A10clUA  C2019 03 14D#7kT%?M4tWimHK0XAMe[9dx`7!.%!R\8Cjq,kOO^w!^-Y%ZD;Mb511
     A10clUA  C2019 03 14JN:L+4h#t3RIr)J06)jJ(_wj,ejU;H%i=AoU8YOKeSwn#.*aR.ik511
     A10clUA KC2019 03 14.94123610 30 44.46 -07 27 39.1    ~3ENI 16.3 GVNEOCPC95
     A10clUA  C2019 03 14e1/wS$yb2lBwE?k'OcY],$B@VGQ.2W@u.MTa5Js'lp2;)9jFM'-Q511
     A10clUA KC2019 03 14.94498710 30 39.46 -07 30 30.3    ~3ENI 16.3 GVNEOCPC95
     A10clUA  C2019 03 14]6j3x=g`,kY4^*npEwcjD6KQBOX)F6S^wK%:l?!]xiA(]kN[/rYy511
     A10clUA  C2019 03 14sf21m0\L$NkYfCHaL,STgbaId]v:p([MlyKFD*fBSNn_[w\Z8+xu511
     A10clUA  C2019 03 143l@+Ek,DPrf)4B[6HXr(qWZF9rlE6@3\:\,$\Ql?Qa3pcEBEy%=m511
     A10clUA  C2019 03 14JCD,)f?SX^+8Er..=PSZ)2Qv/`iwi:!28a;M[n+tSCsK+(i[5#dH511
     A10clUA  C2019 03 14]xcI7J?,w!\O.YHYd*y@YB3Y-[=p;YB,^a85mrk!+:4JD7#pA:^T511
     A10clUA  C2019 03 14wZs5AfK^YwOZ\in,h_0,V+Gn`o31gKx+LT'8%eqn+^8SE9/fI:3=511
     A10clUA  C2019 03 14dh;6vB(!ayW0^oH8n(Q#nT\qrr!^v1IM9:oB;1uLAZuirjK#msW1511
     A10clUA  C2019 03 14$okvB_6k'+VWw6R@click.Bkej?v!N$_Vb(41M0S2xm+UJR`osIk511
     A10clUA KC2019 03 14.94806610 30 35.29 -07 32 51.2    ~3ENI 16.3 GVNEOCPC95
     A10clUA KC2019 03 14.95114410 30 31.17 -07 35 11.7    ~3ENI 16.3 GVNEOCPC95
     A10clUA  C2019 03 15.24972 10 24 45.60 -11 08 10.2    ~3F6m 16.3 GVNEOCP703
     A10clUA  C2019 03 15.25539 10 24 38.54 -11 11 59.6    ~3F6m 16.4 GVNEOCP703
     A10clUA  C2019 03 15.26106 10 24 31.54 -11 15 47.8    ~3F6m 16.4 GVNEOCP703
     A10clUA  C2019 03 15.26672 10 24 24.61 -11 19 34.9    ~3F6m 16.4 GVNEOCP703
     A10clUA KC2019 03 152iPB+21`uIrvHf[#6x/PG\yl!h(8Ss$B#GN62DP-n]ph?MX=\c?bQ67
     A10clUA KC2019 03 15ekCl.Y$RceeIp.hC@_Z)#Slg'vZmZE8`h*H!bd(!*QK8sI22)i\bQ67
     A10clUA KC2019 03 15\I2$-ZZJ[DR6(];tVd-BGI1]1gI$1v:4.ruiRyJQQ:YhUTDta@Ad587
     A10clUA KC2019 03 15wjN7X]/.L-Pm_DL'SZLMuFI_x(h=aA:,I+,nL20Z#s`*:dA`MjyK595
     A10clUA KC2019 03 15@2u^si1+TEH1b;ryD@hsQ;aMO$cIk^-d'rI[=Km54bbjBa4bAW\L587
     A10clUA KC2019 03 15JGW1[*Zq!`ktSdInSe50!a\y:]UV-V0gkH!JaZo[;HdpS)+=+Fy^587
     A10clUA KC2019 03 15L-jq0k44-n)B/QBM!O1,l,kTlM!bp$4$n+h9?Fh+CQ6e%7;jw-`)595
     A10clUA KC2019 03 15QsK/A0wZ*y[r^X#tC\e8LbF2kS@3uWdn\Mil$$P#9H;q5:bS5S!aL04
     A10clUA KC2019 03 158LNe;ujsKG2Nc)TRxp-++I^a1DilqF_/r3Ohbsa4@tb]Wp6UfC`LL04
     A10clUA KC2019 03 15$:Hc#uPR=9K$'FRi)0_se%pLQ=JdNG@R;CoK[mP9tvl=ZV-g[Xm3L04
     A10clUA KC2019 03 15VZ;%R3%WHr.aF^Scr/?QU^Dh3?j5ko`s_YA2A]X6BR;XQppO8]F2595
     A10clUA KC2019 03 15.-7heren@3bp^B`Zt`P-7FWA_;gKCHNKSlZ:^(5q.wgFsM[m41%1X31
     A10clUA KC2019 03 15J6$uCJ/8.7M%y$lwt[jbFEAWWB\^/WbE57C`G[n8.NlftlcnM-0MX31
     A10clUA KC2019 03 15U)x=)gUMVavHIJ:5x,RG3_W`lcE/]eeA=\$+k^2!EbJHfd7eKi28X31
     A10clUA KC2019 03 16^D=#e5_Ct+',,IV(5u?.287VkeciI-aMv@JJK,0WfYhoo=ho=Q\UI47
     A10clUA KC2019 03 161+7C[Wn+(T:@u(ijEX:/vq+hr8C=I9H;]^r+iU_+oY[QIKP[elD;I47
     A10clUA 9C2019 03 16-E@/`Wm2]g!B64#A7)qrHcpd'EGqAN$fHgLY[^urP:p8V!c(IMygG40
     A10clUA KC2019 03 16]_?J1x_JMWP#ruj8QE4n)3\keqJ_haD-e0+KZX\d5.0R1wgPlp=(I47
     A10clUA KC2019 03 16@Nk*YpdkS(Z;FDnW:kxj7na?cDr(?9._gTi$-E1iYMjXA!rf=$H$I47
     A10clUA KC2019 03 16/#'wWKQ[2Qm0@lh;Ga'G$+p\)(+EvM.yT_VY7llh_nRY:Ata\!c:I47
     A10clUA KC2019 03 16ik.wE=]!vNGB`jn?^imKoc?0vkQC\`@'WW]-+^*!EtJdY9XY?'B8I47
     A10clUA 9C2019 03 16hyb[W@%H[!C+fVxxi=%e0J]oF$]y$yZ5?R.yUVZVS?vc=tR5S=E#G40
     A10clUA 9C2019 03 16F/46(gD[vTo,b4)KRW$AeAfBvOoPqXPrA?.$,,_(`/4HCqNOORpnG40
     A10clUA 9C2019 03 16T7^c9#K=cWWkrftcQHmTcN\e_@$m1B,O6cSM2d^*xXnP'a05$_qXG40
     A10clUA 9C2019 03 16%dm;NGH!33sq=rPeH12F_qforr=O)pXah]5xT\F/J3(A+Kp\wi]\G40
     A10clUA KC2019 03 16HSk_Y7g=7PgKY.V3ZjpWYSmsbGcTJebp$uvocm-mZ2LCB`#HPMc[H21
     A10clUA KC2019 03 16E?:oD5kmR_Fs2L.fsWG7Y(0Y_p1*5%S3oD'G][G1HtMV`G3WHJ6*H21
     A10clUA KC2019 03 16XlTeYI/`KGBLXj_a`4r.8bl'IVUK+gq9RQc7h=3:OW;4XVuF(]^jH21
     A10clUA KC2019 03 16k=6*ogGeYi(F*W$yl6UA\7Xt'.:unjn_-*DVLEB_5J+s\cr(y'I[H21
     A10clUA KC2019 03 16t^:hx!MvXSuT80$C):aUB`\EvT',TqV(/KKaLx]^+Y8CCq@'e'\.H21
     A10clUA KC2019 03 16J[+d;+5Xg:prMc;p45Qy=ha_a;#hO'J[-hv9#RKjlub?8WjLlAc/H21
     A10clUA KC2019 03 16X`qmH_i;bAf,h;naT%QZqM`5\(7a0qTBWK5%0XtLT:XBV)d+5DVbL01
     A10clUA KC2019 03 16QTmNer=E\v?.*Z@L6F/+xxb`]-9$6RVD*0LGU/wt='T8SD^=xD;wL01
     A10clUA KC2019 03 16^Uo(/S8\mkxBbYvgu9*s]yJC/_62RNhGWwTo3.=$,_A@5A-047*KL01
     A10clUA KC2019 03 16fE3TFD,:?/1xop?5+:BO3$TIXHbDmOS:N9nh2#S0sIOb.D+JsJMvL01
     A10clUA KC2019 03 17Nv`BJS78e:kvgn%PI5'vS+$*dT8E!Etw_pG8-9$^TCRYs.]b5YpuH21
     A10clUA KC2019 03 17G83DQ)kjk^HmBjN[\rL,vGCv`iiy6[242Ya=$._x3J4CPtsQp7a9H21
     A10clUA KC2019 03 17sF=ZcAh#HAj]:,ZD'Tuyexplanation$g`=Xlk[YQ/Yniv62y8SDH21
     A10clUA  C2019 03 17.22515 09 57 24.37 -26 25 03.6    ~3H5m 17.3 GVNEOCPI52
     A10clUA  C2019 03 17.22675 09 57 23.23 -26 25 33.3    ~3H5m 17.2 GVNEOCPI52
     A10clUA  C2019 03 17.22811 09 57 22.28 -26 25 58.7    ~3H5m 17.4 GVNEOCPI52
     A10clUA  C2019 03 17.22824 09 57 22.18 -26 26 01.1    ~3H5m 17.2 GVNEOCPI52

Station data:
(511) Haute Provence  (N43.931876 E5.715700)  France.  Observers W.
   Polycarpe, M. Dennefield, W. Thuillot, B. Carry, P. David, S. Bouquillon,
   F. Taris, P. Tanga, M. Delbó, E. Saquet, V. Robert. Measurers W. Thuillot,
   S. Bouquillon, F. Taris, T. Carlucci, C. Barache. 1.20-m f/6 reflector +
   CCD.
(587) Sormano  (N45.882949 E9.229180)  Italy.  Observers F. Manca, A. Testa.
   Measurer F. Manca. 0.5-m + CCD.
(595) Farra d'Isonzo  (N45.915734 E13.525780)  Italy.  Observers L.
   Bittesini, F. Fabris, E. Pettarin, F. Piani. Measurer E. Pettarin. 0.30-m
   f/4.5 reflector + CCD.
(703) Catalina Sky Survey  (N32.417006 W110.732640)  US/Arizona.  Observers
   B. M. Africano, E. J. Christensen, G. A. Farneth, D. C. Fuls, A. R. Gibbs,
   A. D. Grauer, H. Groeller, J. A. Johnson, R. A. Kowalski, S. M. Larson, G.
   J. Leonard, R. L. Seaman, F. C. Shelly. 0.68 m Schmidt + 10K CCD.
(C95) SATINO Remote Observatory, Haute Provence  (N43.932042 E5.712390)
   France.
(G40) Slooh.com Canary Islands Observatory  (N28.299720 W16.508260)  Canary
   Islands (Spain).  Observers G. Gašparović, Y. Chen. 0.43-m f/6.8 Corrected
   Dall-Kirkham + CCD.
(H21) Astronomical Research Observatory, Westfield  (N39.483057 W87.968270)
   US/Illinois. 0.76-m f/3.0 astrograph + CCD.
(I47) Pierre Auger Observatory, Malargüe  (S35.495442 W69.449700)  Argentina.
(I52) Steward Observatory, Mt. Lemmon Station  (N32.442547 W110.788920)
   US/Arizona.  Observers B. M. Africano, E. J. Christensen, G. A. Farneth,
   D. C. Fuls, A. R. Gibbs, A. D. Grauer, H. Groeller, J. A. Johnson, R. A.
   Kowalski, S. M. Larson, G. J. Leonard, R. L. Seaman, F. C. Shelly. 1.0-m
   reflector + CCD.
(L01) Višnjan Observatory, Tičan  (N45.290900 E13.749300)  Croatia.
   Observers K. Korlević, E. Pettarin. Measurer E. Pettarin. 1.0-m f/2.9
   reflector + CCD.
(L04) ROASTERR-1 Observatory, Cluj-Napoca  (N46.820954 E23.596400)  Romania.
(Q67) JBL Observatory, Bathurst  (S33.397063 E149.492330)  Australia/NSW.
(T08) ATLAS-MLO, Mauna Loa  (N19.535772 W155.576400)  US/Hawaii.
(X31) Galileo Galilei Observatory, Oro Verde  (S31.823022 W60.520660)
   Argentina.

Orbital elements:  A10clUA
   Perihelion 2019 Jan 22.885930 +/- 0.0166 TT = 21:15:44 (JD 2458506.385930)
Epoch 2019 Mar 17.0 TT = JDT 2458559.5   Earth MOID: 0.0180   Ma: 0.0558
M  39.77466188 +/- 0.025            (J2000 ecliptic)          AutoNEOCP
n   0.74885358 +/- 0.00024          Peri.  122.23717 +/- 0.015
a   1.20098645 +/- 0.000256         Node   352.64389 +/- 0.00010
e   0.2296034 +/- 0.000162          Incl.   21.63045 +/- 0.010
P   1.32/480.73d           H 23.5   G  0.15   U  7.1  
q 0.92523586 +/- 4.61e-6    Q 1.47673703 +/- 0.00051
From 76 observations 2019 Mar. 14-17; mean residual 0".65
Residuals in arcseconds: 
190314 T08  .25-  .47-    190314 511  .65+  1.8+    190316 I47  .21+  .62+    
190314 T08  .40-  .69-    190314 511  .53+  1.5+    190316 I47  .16+  .31+    
190314 T08  .01-  2.3-    190314 C95  .26-  .39-    190316 I47  .21+  .20+    
190314 T08  .40-  .70-    190314 C95  .12-  .44-    190316 G40  .95-  .39+    
190314 T08  .14-  .43-    190315 703  .62+  .34+    190316 G40  .56-  .90-    
190314 T08  .26-  .34-    190315 703  .12-  .07-    190316 G40  .33-  .06-    
190314 T08  .39-  .52-    190315 703  .15-  .11+    190316 G40  .66-  .44+    
190314 T08  .23-  .48-    190315 703  .48+  .38+    190316 H21  .15-  .06+    
190314 T08  .18-  .62-    190315 Q67  .60-  .66-    190316 H21  .27-  .02+    
190314 T08  .32-  .73-    190315 Q67  .82-  1.2-    190316 H21  .14-  .08+    
190314 511  .44+  .86+    190315 587  .10+  .05+    190316 H21  .02-  .11+    
